This is the latest recevied weather packets stored in our database for station/object VA6GSB-13. If no packets are shown the sender has not sent any weather packets the latest 10 day(s).
| Time | Temp. | Humidity | Pressure | Rain* | Wind** | Luminosity | Snow |
|---|---|---|---|---|---|---|---|
| 1787601339 | 20.56° C | 59% | 1018 hPa | 0 mm | - | 338 W/m² | - |
| 1787601040 | 20.56° C | 59% | 1018 hPa | 0 mm | - | 393 W/m² | - |
| 1787600963 | 20.56° C | 58% | 1018 hPa | 0 mm | - | 421 W/m² | - |
| 1787600663 | 20.56° C | 58% | 1018 hPa | 0 mm | - | 420 W/m² | - |
| 1787600439 | 20.56° C | 58% | 1018 hPa | 0 mm | - | 517 W/m² | - |
| 1787600363 | 20.56° C | 58% | 1017.9 hPa | 0 mm | - | 524 W/m² | - |
| 1787600140 | 20.56° C | 57% | 1018 hPa | 0 mm | - | 567 W/m² | - |
| 1787600063 | 20.56° C | 57% | 1017.8 hPa | 0 mm | - | 533 W/m² | - |
| 1787599763 | 20.56° C | 58% | 1017.7 hPa | 0 mm | - | 570 W/m² | - |
| 1787599464 | 20° C | 61% | 1017.7 hPa | 0 mm | - | 597 W/m² | - |
| 1787599239 | 20° C | 61% | 1018 hPa | 0 mm | - | 417 W/m² | - |
| 1787598943 | 19.44° C | 63% | 1018 hPa | 0 mm | - | 599 W/m² | - |
| 1787598639 | 19.44° C | 65% | 1018 hPa | 0 mm | - | 500 W/m² | - |
| 1787598563 | 19.44° C | 65% | 1017.7 hPa | 0 mm | - | 464 W/m² | - |
| 1787598264 | 18.89° C | 66% | 1017.6 hPa | 0 mm | - | 419 W/m² | - |
| 1787597964 | 18.89° C | 66% | 1017.6 hPa | 0 mm | - | 357 W/m² | - |
| 1787597741 | 18.89° C | 65% | 1018 hPa | 0 mm | - | 330 W/m² | - |
| 1787597664 | 18.89° C | 66% | 1017.6 hPa | 0 mm | - | 331 W/m² | - |
| 1787597365 | 18.89° C | 66% | 1017.6 hPa | 0 mm | - | 401 W/m² | - |
| 1787597140 | 18.89° C | 66% | 1017 hPa | 0 mm | - | 367 W/m² | - |
| 1787596840 | 18.89° C | 65% | 1017 hPa | 0 mm | - | 344 W/m² | - |
| 1787596764 | 18.89° C | 65% | 1017.4 hPa | 0 mm | - | 343 W/m² | - |
| 1787596464 | 19.44° C | 65% | 1017.3 hPa | 0 mm | - | 339 W/m² | - |
| 1787596241 | 18.89° C | 65% | 1017 hPa | 0 mm | - | 355 W/m² | - |
| 1787595943 | 18.89° C | 65% | 1017 hPa | 0 mm | - | 403 W/m² | - |
* Rain latest hour (hover to see other rain measurements)
** Current wind speed in m/s (hover to see current wind gust speed)